DW7854 Weather Reports


Display with metric or nautical units.
time (UTC)temp
F
wind
direction
speed
MPH
gust
MPH
rain 1hr
in
rain 24hr
in
rain mn
in
humidity
%
barometer
mb
20260510160007 73 99 0.0 4.0 0.00 0.19 0.19 86 1012.8
20260510155338 73 136 1.0 3.0 0.00 0.19 0.19 84 1012.5
20260510154502 72 170 1.0 4.0 0.00 0.19 0.19 87 1012.7
20260510154438 73 171 1.0 4.0 0.00 0.19 0.19 87 1012.7
20260510153538 72 257 1.0 2.0 0.00 0.19 0.19 88 1012.7
20260510153007 72 261 0.0 5.0 0.00 0.19 0.19 88 1012.4
20260510151737 72 98 3.0 8.0 0.00 0.19 0.19 87 1011.9
20260510151504 71 107 3.0 8.0 0.00 0.19 0.19 89 1011.9
20260510150838 72 95 3.0 8.0 0.00 0.19 0.19 90 1012.1
20260510145937 71 107 4.0 8.0 0.00 0.19 0.19 94 1012.4
20260510145038 70 97 4.0 9.0 0.00 0.19 0.19 96 1012.6
20260510144602 69 35 2.0 9.0 0.00 0.19 0.19 96 1012.6
20260510144137 69 97 4.0 9.0 0.00 0.19 0.19 96 1012.6
20260510143238 69 93 3.0 7.0 0.00 0.19 0.19 96 1012.7
20260510143103 68 88 3.0 8.0 0.00 0.19 0.19 96 1012.7
20260510142338 69 113 3.0 5.0 0.00 0.19 0.19 96 1013.1
20260510141507 68 122 2.0 7.0 0.00 0.19 0.19 96 1013.2
20260510141437 68 103 3.0 7.0 0.00 0.19 0.19 96 1013.2
20260510140537 68 102 3.0 8.0 0.00 0.19 0.19 97 1013.2
20260510140003 68 80 1.0 8.0 0.00 0.19 0.19 97 1013.3
20260510135638 68 92 2.0 8.0 0.00 0.19 0.19 97 1013.5
20260510134509 67 84 1.0 3.0 0.00 0.19 0.19 97 1013.6
20260510133838 68 76 1.0 7.0 0.00 0.19 0.19 97 1013.6
20260510133003 67 82 2.0 7.0 0.00 0.19 0.19 96 1013.2
20260510132937 68 78 2.0 7.0 0.00 0.19 0.19 96 1013.3
20260510132037 67 50 1.0 3.0 0.00 0.19 0.19 97 1013.1
20260510131604 67 20 1.0 5.0 0.00 0.19 0.19 97 1013.2
20260510131137 67 64 1.0 5.0 0.00 0.19 0.19 97 1013.2
20260510130237 67 59 1.0 5.0 0.00 0.19 0.19 96 1013.5
20260510130008 67 63 1.0 5.0 0.00 0.19 0.19 96 1013.5
20260510124502 66 321 2.0 6.0 0.00 0.19 0.19 96 1013.4
20260510124437 67 62 1.0 6.0 0.00 0.19 0.19 96 1013.4
20260510123537 67 34 1.0 4.0 0.00 0.19 0.19 96 1013.4
20260510123117 66 36 1.0 4.0 0.00 0.19 0.19 96 1013.5
20260510122637 67 1 1.0 2.0 0.00 0.19 0.19 96 1013.4
20260510121737 67 28 1.0 5.0 0.01 0.19 0.19 96 1013.4
20260510121606 66 360 0.0 4.0 0.01 0.19 0.19 96 1013.3
20260510120837 67 37 1.0 5.0 0.01 0.19 0.19 96 1013.4
20260510120103 66 303 0.0 2.0 0.01 0.19 0.19 96 1013.3
20260510115937 67 5 0.0 2.0 0.01 0.19 0.19 96 1013.3
20260510115038 67 336 0.0 2.0 0.02 0.19 0.19 96 1013.3
20260510114503 66 38 0.0 7.0 0.02 0.19 0.19 96 1013.2
20260510113237 67 14 3.0 7.0 0.03 0.19 0.19 96 1013.2
20260510113106 66 333 3.0 6.0 0.03 0.19 0.19 96 1013.0
20260510112337 67 59 1.0 3.0 0.04 0.18 0.19 96 1012.8
20260510111604 67 311 0.0 2.0 0.07 0.18 0.18 96 1013.3
20260510110538 67 243 2.0 4.0 0.12 0.18 0.18 96 1013.1
20260510110009 67 199 1.0 9.0 0.13 0.18 0.18 96 1013.1
20260510105637 67 174 6.0 10.0 0.15 0.18 0.18 96 1012.7
20260510104737 67 152 6.0 11.0 0.15 0.17 0.17 96 1012.3
20260510104606 67 155 7.0 11.0 0.15 0.17 0.17 96 1012.4
20260510103837 67 176 4.0 8.0 0.15 0.16 0.17 96 1013.4
20260510103110 66 178 4.0 7.0 0.15 0.16 0.16 96 1013.5
20260510102937 67 174 2.0 5.0 0.14 0.15 0.15 96 1013.5
20260510102037 67 185 1.0 3.0 0.13 0.13 0.13 96 1013.6
20260510101505 66 175 1.0 3.0 0.11 0.11 0.11 96 1013.6
20260510101137 67 214 1.0 3.0 0.09 0.09 0.09 96 1013.6
20260510100237 67 0 0.0 0.0 0.05 0.05 0.05 96 1013.4
20260510100105 67 288 0.0 0.0 0.05 0.05 0.05 96 1013.5
20260510095337 67 0 0.0 0.0 0.03 0.03 0.03 96 1013.3
20260510094509 66 158 0.0 0.0 0.02 0.02 0.02 95 1013.1
20260510094437 67 0 0.0 0.0 0.02 0.02 0.02 95 1013.1
20260510093537 67 0 0.0 0.0 0.01 0.01 0.01 95 1012.8
20260510093005 66 158 0.0 0.0 0.01 0.01 0.01 95 1013.1
20260510092637 67 0 0.0 0.0 0.00 0.00 0.00 95 1013.2
20260510091737 67 0 0.0 0.0 0.00 0.00 0.00 95 1013.4
20260510091506 66 286 0.0 0.0 0.00 0.00 0.00 96 1013.4
20260510090837 67 0 0.0 0.0 0.00 0.00 0.00 95 1013.3
20260510090006 66 29 0.0 0.0 0.00 0.00 0.00 95 1012.8
20260510085937 66 0 0.0 0.0 0.00 0.00 0.00 95 1012.8
20260510085037 66 0 0.0 0.0 0.00 0.00 0.00 95 1013.0
20260510084503 66 29 0.0 0.0 0.00 0.00 0.00 95 1013.0
20260510084137 66 0 0.0 0.0 0.00 0.00 0.00 95 1012.8
20260510083237 66 0 0.0 0.0 0.00 0.00 0.00 95 1012.5
20260510083004 66 29 0.0 0.0 0.00 0.00 0.00 94 1012.5
20260510081510 66 29 0.0 0.0 0.00 0.00 0.00 94 1011.8
20260510081437 67 0 0.0 0.0 0.00 0.00 0.00 94 1011.7
20260510080537 67 0 0.0 0.0 0.00 0.00 0.00 94 1011.8
20260510080107 66 360 0.0 3.0 0.00 0.00 0.00 94 1011.8
20260510075637 67 1 1.0 2.0 0.00 0.00 0.00 94 1011.9
20260510074737 67 335 0.0 3.0 0.00 0.00 0.00 94 1011.9
20260510074606 66 344 1.0 3.0 0.00 0.00 0.00 94 1011.9
20260510073117 67 94 0.0 0.0 0.00 0.00 0.00 94 1011.6
20260510072937 67 0 0.0 0.0 0.00 0.00 0.00 94 1011.5
20260510072037 67 0 0.0 0.0 0.00 0.00 0.00 94 1011.4
20260510071602 67 94 0.0 0.0 0.00 0.00 0.00 94 1011.4
20260510071137 68 0 0.0 0.0 0.00 0.00 0.00 94 1011.5
20260510070104 67 94 0.0 0.0 0.00 0.00 0.00 93 1011.5
20260510065337 68 0 0.0 0.0 0.00 0.00 0.00 93 1011.3
20260510064603 68 94 0.0 0.0 0.00 0.00 0.00 93 1011.3
20260510064437 68 0 0.0 0.0 0.00 0.00 0.00 93 1011.4
20260510063537 68 0 0.0 0.0 0.00 0.00 0.00 93 1011.3
20260510063107 68 94 0.0 0.0 0.00 0.00 0.00 93 1011.0
20260510062637 69 0 0.0 0.0 0.00 0.00 0.00 93 1011.1
20260510061737 69 0 0.0 0.0 0.00 0.00 0.00 93 1011.3
20260510061606 68 94 0.0 0.0 0.00 0.00 0.00 93 1011.3
20260510060837 69 0 0.0 0.0 0.00 0.00 0.00 93 1011.5
20260510060006 69 94 0.0 0.0 0.00 0.00 0.00 93 1011.6
20260510055937 69 0 0.0 0.0 0.00 0.00 0.00 93 1011.6
20260510055037 69 104 1.0 3.0 0.00 0.00 0.00 93 1011.3
20260510054506 69 90 1.0 2.0 0.00 0.00 0.00 93 1011.4
20260510054137 70 141 0.0 2.0 0.00 0.00 0.00 92 1011.3
20260510053237 70 164 1.0 3.0 0.00 0.00 0.00 92 1011.3
20260510053003 69 175 0.0 3.0 0.00 0.00 0.00 92 1011.3
20260510051517 69 157 2.0 5.0 0.00 0.00 0.00 92 1011.1
20260510051437 70 149 3.0 5.0 0.00 0.00 0.00 92 1011.1
20260510050537 70 139 2.0 8.0 0.00 0.00 0.00 92 1011.1
20260510050003 70 183 2.0 8.0 0.00 0.00 0.00 92 1011.0
20260510045637 70 133 3.0 7.0 0.00 0.00 0.00 92 1010.9
20260510044607 70 132 2.0 7.0 0.00 0.00 0.00 92 1010.8
20260510043837 70 144 4.0 8.0 0.00 0.00 0.00 92 1010.7
20260510043017 70 157 3.0 7.0 0.00 0.00 0.00 91 1010.4
20260510042937 70 143 4.0 7.0 0.00 0.00 0.00 92 1010.4
20260510042037 71 150 3.0 6.0 0.00 0.00 0.00 91 1010.5
20260510041637 70 176 2.0 8.0 0.00 0.00 0.00 91 1010.5
20260510041137 71 145 4.0 8.0 0.00 0.00 0.00 91 1010.4
20260510040237 71 143 4.0 9.0 0.00 0.00 0.00 91 1010.4
20260510040009 71 149 3.0 9.0 0.00 0.00 0.00 91 1010.4
20260510035337 71 146 5.0 9.0 0.00 0.00 0.00 91 1010.3
20260510034502 71 165 3.0 8.0 0.00 0.00 0.00 90 1010.4
20260510033537 72 141 6.0 10.0 0.00 0.00 0.00 89 1010.3
20260510033002 71 168 6.0 10.0 0.00 0.00 0.00 89 1010.2
20260510032637 72 145 6.0 11.0 0.00 0.00 0.00 89 1010.2
20260510031737 72 140 7.0 15.0 0.00 0.00 0.00 88 1010.2
20260510031505 72 92 9.0 15.0 0.00 0.00 0.00 88 1010.2
20260510030011 73 164 4.0 10.0 0.00 0.00 0.00 86 1010.0
20260510025937 73 142 5.0 9.0 0.00 0.00 0.00 86 1009.9
20260510025037 73 138 4.0 11.0 0.00 0.00 0.00 84 1009.8
20260510024504 73 138 3.0 12.0 0.00 0.00 0.00 83 1009.8
20260510024137 74 142 5.0 12.0 0.00 0.00 0.00 82 1009.7
20260510023102 74 156 3.0 8.0 0.00 0.00 0.00 79 1009.6
20260510022337 74 142 4.0 9.0 0.00 0.00 0.00 78 1009.5
20260510021507 75 153 3.0 10.0 0.00 0.00 0.00 77 1009.4
20260510021437 75 133 5.0 10.0 0.00 0.00 0.00 77 1009.4
20260510020537 76 126 5.0 12.0 0.00 0.00 0.00 77 1009.2
20260510020112 76 143 2.0 8.0 0.00 0.00 0.00 80 1009.1
20260510014510 77 135 3.0 12.0 0.00 0.00 0.00 80 1008.8
20260510013002 78 140 5.0 8.0 0.00 0.00 0.00 78 1008.6
20260510012937 78 129 3.0 8.0 0.00 0.00 0.00 77 1008.7
20260510012037 78 128 2.0 5.0 0.00 0.00 0.00 76 1008.4
20260510011508 78 135 1.0 5.0 0.00 0.00 0.00 75 1008.4
20260510011137 79 137 2.0 5.0 0.00 0.00 0.00 75 1008.4
20260510010237 79 115 2.0 4.0 0.00 0.00 0.00 73 1008.3
20260510010007 79 150 2.0 4.0 0.00 0.00 0.00 73 1008.3
20260510005337 80 107 0.0 3.0 0.00 0.00 0.00 71 1008.2
20260510004503 80 69 0.0 1.0 0.00 0.00 0.00 70 1008.1
20260510004437 81 69 0.0 1.0 0.00 0.00 0.00 70 1008.1
20260510003537 81 115 0.0 2.0 0.00 0.00 0.00 69 1007.9
20260510003103 81 115 0.0 2.0 0.00 0.00 0.00 68 1008.0
20260510001737 82 141 1.0 3.0 0.00 0.00 0.00 68 1007.7
20260510001602 82 151 1.0 3.0 0.00 0.00 0.00 66 1007.8
20260510000837 82 114 1.0 3.0 0.00 0.00 0.00 64 1007.6
20260510000013 83 113 0.0 3.0 0.00 0.00 0.00 65 1007.7
20260509235037 84 166 2.0 4.0 0.00 0.00 0.00 64 1007.6
20260509234507 83 150 1.0 4.0 0.00 0.00 0.00 64 1007.6
20260509234137 84 157 3.0 5.0 0.00 0.00 0.00 63 1007.5
20260509233237 85 143 3.0 5.0 0.00 0.00 0.00 63 1007.6
20260509233107 84 136 2.0 5.0 0.00 0.00 0.00 62 1007.6
20260509232337 85 163 3.0 6.0 0.00 0.00 0.00 61 1007.4
20260509231610 85 177 1.0 5.0 0.00 0.00 0.00 61 1007.5
20260509230537 86 177 2.0 5.0 0.00 0.00 0.00 58 1007.5
20260509230103 85 182 2.0 4.0 0.00 0.00 0.00 60 1007.5
20260509225637 86 172 3.0 6.0 0.00 0.00 0.00 60 1007.5
20260509224737 86 159 3.0 5.0 0.00 0.00 0.00 60 1007.4
20260509224504 85 171 3.0 6.0 0.00 0.00 0.00 61 1007.4
20260509223837 86 129 3.0 5.0 0.00 0.00 0.00 59 1007.4
20260509223005 85 154 2.0 6.0 0.00 0.00 0.00 61 1007.3
20260509222036 86 154 2.0 5.0 0.00 0.00 0.00 60 1007.3
20260509221507 85 180 2.0 5.0 0.00 0.00 0.00 61 1007.3
20260509221137 86 148 3.0 5.0 0.00 0.00 0.00 62 1007.4
20260509220237 86 129 2.0 5.0 0.00 0.00 0.00 61 1007.4
20260509220107 85 174 2.0 6.0 0.00 0.00 0.00 61 1007.3
20260509215337 86 153 3.0 6.0 0.00 0.00 0.00 59 1007.4
20260509214504 86 105 4.0 7.0 0.00 0.00 0.00 59 1007.3
20260509214437 87 182 4.0 7.0 0.00 0.00 0.00 61 1007.3
20260509213537 86 159 2.0 5.0 0.00 0.00 0.00 62 1007.3
20260509213104 85 174 2.0 5.0 0.00 0.00 0.00 63 1007.5
20260509212636 85 154 4.0 7.0 0.00 0.00 0.00 63 1007.4
20260509211511 83 181 3.0 7.0 0.00 0.00 0.00 66 1007.6
20260509210837 83 157 2.0 6.0 0.00 0.00 0.00 65 1007.7
20260509210109 83 85 0.0 3.0 0.00 0.00 0.00 63 1007.9
20260509205937 83 86 1.0 3.0 0.00 0.00 0.00 64 1007.8
20260509205037 84 114 2.0 7.0 0.00 0.00 0.00 65 1008.0
20260509204512 84 277 1.0 7.0 0.00 0.00 0.00 62 1008.1
20260509204136 85 62 1.0 7.0 0.00 0.00 0.00 62 1008.1
20260509203236 86 151 3.0 7.0 0.00 0.00 0.00 62 1008.1
20260509203012 85 84 3.0 7.0 0.00 0.00 0.00 63 1008.2
20260509202336 86 132 3.0 7.0 0.00 0.00 0.00 65 1008.2
20260509201604 85 110 3.0 9.0 0.00 0.00 0.00 65 1008.4
20260509201436 85 125 4.0 9.0 0.00 0.00 0.00 65 1008.4
20260509200005 86 125 3.0 6.0 0.00 0.00 0.00 65 1008.5
20260509195636 86 152 2.0 6.0 0.00 0.00 0.00 62 1008.6
20260509194737 86 167 4.0 8.0 0.00 0.00 0.00 61 1008.6
20260509194606 86 170 4.0 8.0 0.00 0.00 0.00 61 1008.6
20260509193836 85 174 3.0 8.0 0.00 0.00 0.00 63 1008.7
20260509193006 85 163 5.0 7.0 0.00 0.00 0.00 62 1008.8
20260509192937 85 157 4.0 7.0 0.00 0.00 0.00 62 1008.8
20260509192037 85 80 3.0 5.0 0.00 0.00 0.00 65 1008.9
20260509191505 84 142 2.0 8.0 0.00 0.00 0.00 65 1008.9
20260509191136 85 152 4.0 9.0 0.00 0.00 0.00 65 1009.0
20260509190004 84 91 2.0 6.0 0.00 0.00 0.00 66 1009.0
20260509184515 83 110 2.0 6.0 0.00 0.00 0.00 64 1009.2
20260509184437 84 142 3.0 8.0 0.00 0.00 0.00 67 1009.2
20260509183536 84 139 2.0 8.0 0.00 0.00 0.00 67 1009.1
20260509183104 82 159 1.0 5.0 0.00 0.00 0.00 69 1009.2
20260509182636 83 116 2.0 4.0 0.00 0.00 0.00 66 1009.1
20260509181736 83 78 2.0 5.0 0.00 0.00 0.00 65 1009.1
20260509181603 83 334 1.0 5.0 0.00 0.00 0.00 64 1009.2
20260509180103 82 322 3.0 7.0 0.00 0.00 0.00 66 1009.2
20260509175936 82 341 3.0 6.0 0.00 0.00 0.00 66 1009.2
20260509174508 81 299 3.0 6.0 0.00 0.00 0.00 67 1009.4
20260509174136 82 67 3.0 7.0 0.00 0.00 0.00 67 1009.3
20260509173015 81 77 0.0 3.0 0.00 0.00 0.00 67 1009.6
20260509172336 81 44 1.0 3.0 0.00 0.00 0.00 68 1009.6
20260509171510 81 67 1.0 4.0 0.00 0.00 0.00 68 1009.8
20260509171436 81 72 1.0 4.0 0.00 0.00 0.00 68 1009.7
20260509170126 80 325 2.0 6.0 0.00 0.00 0.00 69 1009.7
20260509165636 81 160 1.0 2.0 0.00 0.00 0.00 74 1009.6
20260509164506 79 143 1.0 4.0 0.00 0.00 0.00 71 1009.7
20260509163836 80 39 1.0 3.0 0.00 0.00 0.00 72 1009.6
20260509163104 79 46 1.0 6.0 0.00 0.00 0.00 72 1009.7
20260509162936 80 26 1.0 6.0 0.00 0.00 0.00 73 1009.5
20260509162036 79 78 1.0 5.0 0.00 0.00 0.00 79 1009.4
20260509161603 78 54 0.0 5.0 0.00 0.00 0.00 76 1009.4
20260509161136 78 21 1.0 5.0 0.00 0.00 0.00 75 1009.4
20260509160236 78 48 1.0 3.0 0.00 0.00 0.00 78 1009.3